This is the latest recevied weather packets stored in our database for station/object N8HON. If no packets are shown the sender has not sent any weather packets the latest 10 day(s).
| Time | Temp. | Humidity | Pressure | Rain* | Wind** | Luminosity | Snow |
|---|---|---|---|---|---|---|---|
| 1777830918 | 13.89° C | 33% | 1015 hPa | 0 mm | - | 700 W/m² | - |
| 1777830615 | 13.33° C | 36% | 1015 hPa | 0 mm | - | 693 W/m² | - |
| 1777830312 | 12.78° C | 38% | 1014.8 hPa | 0 mm | - | 677 W/m² | - |
| 1777830008 | 12.78° C | 32% | 1014.9 hPa | 0 mm | - | 678 W/m² | - |
| 1777829703 | 12.78° C | 35% | 1014.9 hPa | 0 mm | - | 686 W/m² | - |
| 1777829400 | 13.33° C | 35% | 1015 hPa | 0 mm | - | 682 W/m² | - |
| 1777829098 | 12.78° C | 36% | 1014.8 hPa | 0 mm | - | 705 W/m² | - |
| 1777828795 | 12.78° C | 32% | 1015.2 hPa | 0 mm | - | 688 W/m² | - |
| 1777828491 | 12.22° C | 35% | 1014.8 hPa | 0 mm | - | 647 W/m² | - |
| 1777828188 | 12.78° C | 37% | 1015.3 hPa | 0 mm | - | 639 W/m² | - |
| 1777827884 | 12.22° C | 34% | 1015.2 hPa | 0 mm | - | 691 W/m² | - |
| 1777827581 | 12.78° C | 38% | 1015.3 hPa | 0 mm | - | 494 W/m² | - |
| 1777827279 | 12.78° C | 39% | 1015.3 hPa | 0 mm | - | 494 W/m² | - |
| 1777826975 | 12.78° C | 42% | 1015.3 hPa | 0 mm | - | 692 W/m² | - |
| 1777826673 | 11.67° C | 42% | 1015.8 hPa | 0 mm | - | 707 W/m² | - |
| 1777826369 | 11.67° C | 42% | 1015.6 hPa | 0 mm | - | 686 W/m² | - |
| 1777826066 | 11.67° C | 41% | 1015.6 hPa | 0 mm | - | 665 W/m² | - |
| 1777825763 | 11.67° C | 39% | 1015.6 hPa | 0 mm | - | 641 W/m² | - |
| 1777825461 | 11.67° C | 43% | 1015.5 hPa | 0 mm | - | 675 W/m² | - |
| 1777825158 | 11.11° C | 42% | 1015.6 hPa | 0 mm | - | 677 W/m² | - |
| 1777824854 | 11.67° C | 44% | 1016 hPa | 0 mm | - | 645 W/m² | - |
| 1777824551 | 10.56° C | 41% | 1015.6 hPa | 0 mm | - | 513 W/m² | - |
| 1777824247 | 10° C | 40% | 1015.6 hPa | 0 mm | - | 481 W/m² | - |
| 1777823943 | 10.56° C | 40% | 1015.8 hPa | 0 mm | - | 538 W/m² | - |
| 1777823640 | 11.11° C | 41% | 1015.9 hPa | 0 mm | - | 617 W/m² | - |
* Rain latest hour (hover to see other rain measurements)
** Current wind speed in m/s (hover to see current wind gust speed)